OE3PDB-3 Weather Reports


time (UTC)temp
C
wind
direction
speed
KPH
gust
KPH
rain 1hr
cm
rain 24hr
cm
rain mn
cm
humidity
%
barometer
mb
20260507052042 11 292 0.0 0.0 0.00 0.00 0.00 71 1011.1
20260507051042 11 90 0.0 0.0 0.00 0.00 0.00 71 1011.0
20260507050042 11 22 0.0 0.0 0.00 0.00 0.00 71 1010.9
20260507045042 11 112 0.0 0.0 0.00 0.00 0.00 71 1010.7
20260507044042 11 202 0.0 0.0 0.00 0.00 0.00 72 1010.6
20260507043042 11 112 0.0 0.0 0.00 0.00 0.00 72 1010.7
20260507042042 11 45 0.0 0.0 0.00 0.00 0.00 71 1010.6
20260507041042 11 157 0.0 0.0 0.00 0.00 0.00 71 1010.4
20260507040042 11 22 0.0 0.0 0.00 0.00 0.00 71 1010.3
20260507035042 11 337 0.0 0.0 0.00 0.00 0.00 71 1010.2
20260507034042 11 292 0.0 0.0 0.00 0.00 0.00 71 1010.2
20260507033042 11 135 0.0 0.0 0.00 0.00 0.00 71 1010.1
20260507032042 11 0 0.0 0.0 0.00 0.00 0.00 70 1009.9
20260507031042 11 67 0.0 0.0 0.00 0.00 0.00 70 1009.9
20260507030042 11 22 0.0 0.0 0.00 0.00 0.00 70 1010.0
20260507025042 11 157 0.0 0.0 0.00 0.00 0.00 70 1009.9
20260507024043 11 67 0.0 0.0 0.00 0.00 0.00 70 1009.9
20260507023043 12 67 0.0 0.0 0.00 0.00 0.00 70 1009.8
20260507022043 12 292 0.0 0.0 0.00 0.00 0.00 70 1009.6
20260507021043 12 315 0.0 0.0 0.00 0.00 0.00 71 1009.7
20260507020043 12 0 0.0 0.0 0.00 0.00 0.00 71 1009.4
20260507015043 12 315 0.0 0.0 0.00 0.00 0.00 71 1009.4
20260507014043 12 22 0.0 0.0 0.00 0.00 0.00 72 1009.5
20260507013043 12 45 0.0 0.0 0.00 0.00 0.00 72 1009.4
20260507012043 12 157 0.0 0.0 0.00 0.00 0.00 72 1009.3
20260507011043 12 292 0.0 0.0 0.00 0.00 0.00 72 1009.3
20260507010043 12 135 0.0 0.0 0.00 0.00 0.00 72 1009.2
20260507005043 12 135 0.0 0.0 0.00 0.00 0.00 72 1009.0
20260507004043 12 202 0.0 0.0 0.00 0.00 0.00 72 1008.9
20260507003043 13 315 0.0 0.0 0.00 0.00 0.00 71 1008.9
20260507002043 13 270 0.0 0.0 0.00 0.00 0.00 71 1008.8
20260507001043 13 45 0.0 0.0 0.00 0.00 0.00 71 1008.9
20260506235041 13 67 0.0 0.0 0.00 0.00 0.00 71 1008.5
20260506234041 13 337 0.0 0.0 0.00 0.00 0.00 71 1008.5
20260506233041 13 337 0.0 0.0 0.00 0.00 0.00 72 1008.5
20260506232041 13 225 0.0 0.0 0.00 0.00 0.00 73 1008.5
20260506231041 13 180 0.0 0.0 0.00 0.00 0.00 73 1008.2
20260506230041 13 45 0.0 0.0 0.00 0.00 0.00 72 1007.9
20260506225042 13 225 0.0 0.0 0.00 0.00 0.00 72 1007.8
20260506224042 14 0 0.0 0.0 0.00 0.00 0.00 71 1007.7
20260506223042 14 90 0.0 0.0 0.00 0.00 0.00 68 1007.6
20260506222042 14 0 0.0 0.0 0.00 0.00 0.00 67 1007.4
20260506221042 15 247 0.0 0.0 0.00 0.00 0.00 66 1006.9
20260506220042 15 270 0.0 0.0 0.00 0.00 0.00 65 1006.7
20260506215042 15 225 0.0 0.0 0.00 0.00 0.00 63 1006.6
20260506214042 15 202 0.0 0.0 0.00 0.00 0.00 63 1006.6
20260506213042 15 315 0.0 0.0 0.00 0.00 0.00 62 1006.5
20260506212042 15 22 0.0 0.0 0.00 0.00 0.00 62 1006.2
20260506211042 15 247 0.0 0.0 0.00 0.00 0.00 62 1006.0
20260506210042 15 247 0.0 0.0 0.00 0.00 0.00 62 1005.7
20260506205042 16 270 0.0 0.0 0.00 0.00 0.00 61 1005.6
20260506204042 16 270 0.0 0.0 0.00 0.00 0.00 59 1005.5
20260506203042 16 270 0.0 0.0 0.00 0.00 0.00 58 1005.4
20260506202042 16 270 0.0 0.0 0.00 0.00 0.00 57 1005.2
20260506201042 17 270 0.0 0.0 0.00 0.00 0.00 57 1005.1
20260506200042 17 270 0.0 0.0 0.00 0.00 0.00 57 1004.9
20260506195042 17 270 0.0 0.0 0.00 0.00 0.00 57 1004.9
20260506194042 17 270 0.0 0.0 0.00 0.00 0.00 56 1004.7
20260506193042 17 270 0.0 0.0 0.00 0.00 0.00 56 1004.5
20260506192042 17 270 0.0 0.0 0.00 0.00 0.00 55 1004.4
20260506191042 18 247 0.0 0.0 0.00 0.00 0.00 54 1004.3
20260506190042 18 270 0.0 0.0 0.00 0.00 0.00 53 1004.2
20260506185042 18 270 0.0 0.0 0.00 0.00 0.00 53 1004.2
20260506184042 18 270 0.0 0.0 0.00 0.00 0.00 52 1004.1
20260506183042 18 270 0.0 0.0 0.00 0.00 0.00 52 1004.1
20260506182042 18 270 0.0 0.0 0.00 0.00 0.00 51 1003.7
20260506181042 19 270 0.0 0.0 0.00 0.00 0.00 51 1004.0
20260506180042 19 270 0.0 0.0 0.00 0.00 0.00 51 1003.7
20260506175042 20 270 0.0 0.0 0.00 0.00 0.00 50 1003.5
20260506174042 20 247 0.0 0.0 0.00 0.00 0.00 50 1003.6
20260506173042 20 270 0.0 0.0 0.00 0.00 0.00 49 1003.6
20260506172042 20 270 0.0 0.0 0.00 0.00 0.00 49 1003.6
20260506171042 20 270 0.0 0.0 0.00 0.00 0.00 49 1003.6
20260506170042 20 270 0.0 0.0 0.00 0.00 0.00 48 1003.7
20260506165042 21 270 0.0 0.0 0.00 0.00 0.00 48 1004.0
20260506164042 21 247 0.0 0.0 0.00 0.00 0.00 48 1003.9
20260506163042 21 270 0.0 0.0 0.00 0.00 0.00 47 1004.0
20260506162042 21 270 0.0 0.0 0.00 0.00 0.00 47 1004.0
20260506161043 21 270 0.0 0.0 0.00 0.00 0.00 46 1004.1
20260506160042 22 225 0.0 0.0 0.00 0.00 0.00 45 1004.0
20260506155042 22 270 0.0 0.0 0.00 0.00 0.00 45 1004.0
20260506154042 22 270 0.0 0.0 0.00 0.00 0.00 43 1004.0
20260506153042 23 270 0.0 0.0 0.00 0.00 0.00 42 1004.0
20260506152042 23 270 0.0 0.0 0.00 0.00 0.00 41 1004.1
20260506151042 23 270 0.0 0.0 0.00 0.00 0.00 41 1004.0
20260506150042 23 270 0.0 0.0 0.00 0.00 0.00 40 1004.0
20260506145042 23 270 0.0 0.0 0.00 0.00 0.00 39 1004.0
20260506144042 23 270 0.0 0.0 0.00 0.00 0.00 39 1004.1
20260506143043 23 270 0.0 0.0 0.00 0.00 0.00 38 1004.1
20260506142043 24 247 0.0 0.0 0.00 0.00 0.00 39 1004.2
20260506141043 24 225 0.0 0.0 0.00 0.00 0.00 39 1004.1
20260506140043 23 270 0.0 0.0 0.00 0.00 0.00 39 1004.3
20260506135043 24 270 0.0 0.0 0.00 0.00 0.00 39 1004.3
20260506134043 24 247 0.0 0.0 0.00 0.00 0.00 38 1004.4
20260506133043 24 270 0.0 0.0 0.00 0.00 0.00 38 1004.5
20260506132043 24 247 0.0 0.0 0.00 0.00 0.00 38 1004.6
20260506131043 23 247 0.0 0.0 0.00 0.00 0.00 39 1004.7
20260506130043 23 270 0.0 0.0 0.00 0.00 0.00 40 1005.1
20260506125043 22 270 0.0 0.0 0.00 0.00 0.00 42 1005.1
20260506124043 21 270 0.0 0.0 0.00 0.00 0.00 43 1005.2
20260506123043 21 247 0.0 0.0 0.00 0.00 0.00 43 1005.5
20260506122043 21 270 0.0 0.0 0.00 0.00 0.00 44 1005.6
20260506121043 21 270 0.0 0.0 0.00 0.00 0.00 45 1005.6
20260506120043 21 247 0.0 0.0 0.00 0.00 0.00 45 1005.8
20260506115043 21 225 0.0 0.0 0.00 0.00 0.00 45 1005.9
20260506114043 21 270 0.0 0.0 0.00 0.00 0.00 44 1005.9
20260506113043 22 247 0.0 0.0 0.00 0.00 0.00 46 1006.0
20260506112043 21 270 0.0 0.0 0.00 0.00 0.00 47 1006.0
20260506111043 21 270 0.0 0.0 0.00 0.00 0.00 46 1006.2
20260506110043 21 270 0.0 0.0 0.00 0.00 0.00 47 1006.4
20260506105043 21 270 0.0 0.0 0.00 0.00 0.00 47 1006.6
20260506104043 21 270 0.0 0.0 0.00 0.00 0.00 47 1006.7
20260506103043 21 270 0.0 0.0 0.00 0.00 0.00 47 1006.7
20260506102043 21 270 0.0 0.0 0.00 0.00 0.00 48 1006.7
20260506101043 22 247 0.0 0.0 0.00 0.00 0.00 46 1006.8
20260506100043 22 247 0.0 0.0 0.00 0.00 0.00 45 1006.9
20260506095043 22 247 0.0 0.0 0.00 0.00 0.00 45 1007.3
20260506094043 21 225 0.0 0.0 0.00 0.00 0.00 45 1007.5
20260506093043 22 247 0.0 0.0 0.00 0.00 0.00 45 1007.6
20260506092043 22 270 0.0 0.0 0.00 0.00 0.00 44 1007.6
20260506091043 22 247 0.0 0.0 0.00 0.00 0.00 44 1007.7
20260506090043 22 247 0.0 0.0 0.00 0.00 0.00 43 1007.8
20260506085043 23 225 0.0 0.0 0.00 0.00 0.00 42 1007.8
20260506084043 24 270 0.0 0.0 0.00 0.00 0.00 40 1007.9
20260506083043 25 247 0.0 0.0 0.00 0.00 0.00 39 1007.9
20260506082043 26 247 0.0 0.0 0.00 0.00 0.00 36 1007.9
20260506081043 28 247 0.0 0.0 0.00 0.00 0.00 37 1007.9
20260506073043 27 67 0.0 0.0 0.00 0.00 0.00 40 1008.3
20260506072043 26 67 0.0 0.0 0.00 0.00 0.00 43 1008.3
20260506071043 23 67 0.0 0.0 0.00 0.00 0.00 49 1008.3
20260506062044 16 67 0.0 0.0 0.00 0.00 0.00 64 1008.7
20260506061044 15 135 0.0 0.0 0.00 0.00 0.00 66 1008.6